Location: �terpigny
(49.8910°N, 2.9249°E)
Time: 11:33:18
(UTC+00:00)

AO-92 - Visible Passes

Search period start: 25 June 2022 00:00
Search period end: 05 July 2022 00:00
Orbit: 472 x 482 km, 97.4° (Epoch: 24 June)

Date Brightness Start Highest point End Pass type
(mag) Time Alt. Az. Time Alt. Az. Time Alt. Az.
25 Jun ? 20:52:37 10° ESE 20:55:33 25° ENE 20:58:30 10° N visible
25 Jun ? 22:26:26 14° SSW 22:28:46 27° W 22:31:53 10° NW visible
26 Jun ? 21:59:31 18° S 22:02:01 56° W 22:05:32 10° NNW visible
27 Jun ? 21:32:36 16° SSE 21:35:21 69° ENE 21:38:55 10° N visible
27 Jun ? 23:08:26 10° W 23:09:07 10° W 23:09:47 10° WNW visible
28 Jun ? 21:05:41 11° SE 21:08:46 34° ENE 21:12:02 10° N visible
28 Jun ? 22:39:53 12° SW 22:42:10 20° W 22:44:53 10° NW visible
29 Jun ? 20:39:45 10° ESE 20:42:17 19° ENE 20:44:50 10° NNE visible
29 Jun ? 22:12:56 17° SSW 22:15:20 39° W 22:18:43 10° NNW visible
30 Jun ? 21:45:59 18° S 21:48:35 82° WSW 21:52:10 10° NNW visible
01 Jul ? 21:19:02 14° SE 21:21:55 47° ENE 21:25:22 10° N visible
01 Jul ? 22:53:25 10° SW 22:55:29 15° W 22:57:34 10° NW visible
02 Jul ? 20:52:24 10° ESE 20:55:20 25° ENE 20:58:18 10° N visible
02 Jul ? 22:26:16 15° SSW 22:28:33 28° W 22:31:41 10° NW visible
03 Jul ? 21:59:17 18° S 22:01:43 57° W 22:05:15 10° NNW visible
04 Jul ? 21:32:17 16° SSE 21:34:58 68° ENE 21:38:32 10° N visible
04 Jul ? 23:07:53 10° WSW 23:08:43 11° W 23:09:33 10° WNW visible
